Flag for U.S.A. Weather past 2 weeks in Lewiston, Idaho, U.S.A.

Now
36 °F

Overcast.


Feels Like: 36 °F
Forecast: 33 / 44 °F
Wind: No wind

Location: Lewiston-Nez Perce County Airport

Current Time: Jan 30, 2015 at 11:35:35 PM

Latest Report: Jan 30, 2015 at 10:56 PM


Visibility: 10 mi

Pressure: 30.32 "Hg

Humidity: 85%

Dew point: 32 °F

Location of LewistonLocation

Historic Weather in Lewiston — Graph

°F

Lewiston temperature yesterday

Maximum temperature yesterday: 40 °F (at 1:56 PM)
Minimum temperature yesterday: 30 °F (at 5:56 AM)
Average temperature yesterday: 35 °F

Past Weeks' High & Low Weather Summary

 TemperatureHumidityPressure
High62 °F (Jan 26, 1:56 PM)100% (Jan 20, 8:56 AM)30.58 "Hg (Jan 20, 8:56 AM)
Low28 °F (Jan 21, 6:56 AM)41% (Jan 26, 2:56 PM)29.86 "Hg (Jan 18, 1:56 AM)
Average42 °F78%30.29 "Hg
* Reported Jan 15 9:56 PM — Jan 30 9:56 PM, Lewiston, Weather by CustomWeather, © 2014

Note: Actual official high and low records may vary slightly from our data, if they occured in-between our weather recording intervals... More about our weather records

Advertising

Lewiston weather history for previous 24 hours

 ConditionsComfort  
Time TempWeatherWind HumidityBarometerVisibility
9:56 PM
Jan 30
36 °FOvercast.No wind85%30.32 "Hg10 mi
8:56 PM36 °FOvercast.No wind85%30.33 "Hg10 mi
7:56 PM36 °FOvercast.6 mph89%30.34 "Hg10 mi
6:56 PM37 °FOvercast.6 mph86%30.36 "Hg10 mi
5:56 PM37 °FMostly cloudy.No wind93%30.35 "Hg10 mi
4:56 PM37 °FOvercast.No wind93%30.33 "Hg7 mi
3:56 PM37 °FOvercast.No wind89%30.33 "Hg10 mi
2:56 PM38 °FOvercast.3 mph86%30.35 "Hg10 mi
1:56 PM37 °FOvercast.No wind93%30.36 "Hg9 mi
12:56 PM38 °FLow clouds.No wind90%30.40 "Hg10 mi
11:56 AM38 °FLow clouds.No wind90%30.42 "Hg10 mi
10:56 AM37 °FLow clouds.5 mph93%30.43 "Hg9 mi
9:56 AM37 °FMostly cloudy.No wind93%30.43 "Hg9 mi
9:02 AM36 °FMostly cloudy.No wind97%30.39 "Hg9 mi
8:55 AM36 °FMore clouds than sun.No wind97%30.43 "Hg7 mi
7:56 AM36 °FFog.3 mph97%30.43 "Hg5 mi
6:56 AM37 °FFog.No wind100%30.42 "Hg2 mi
5:56 AM37 °FFog.3 mph100%30.42 "Hg2 mi
4:56 AM37 °FFog.No wind96%30.41 "Hg3 mi
3:56 AM37 °FFog.No wind96%30.41 "Hg4 mi
2:56 AM37 °FFog.No wind96%30.42 "Hg6 mi
1:56 AM38 °FLow clouds.No wind90%30.42 "Hg8 mi
12:56 AM38 °FLow clouds.3 mph90%30.41 "Hg10 mi
11:56 PM
Jan 29
38 °FOvercast.7 mph90%30.42 "Hg9 mi
Weather by CustomWeather, © 2014

See weather overviewHow to use our weather pages